{"data":{"norad_id":56306,"epoch":"2026-09-20T05:09:01.225728Z","epoch_age_seconds":133240,"freshness":"FRESH","line1":"1 56306U 23056W   26263.21459752  .00024315  00000+0  89310-3 0  9998","line2":"2 56306  43.0004 189.9590 0000783 170.2904 189.7963 15.27473013189852","mean_motion":15.27473013,"eccentricity":7.83e-5,"inclination_deg":43.0004,"raan_deg":189.959,"arg_perigee_deg":170.2904,"mean_anomaly_deg":189.7963,"bstar":0.0008931,"rev_number":18985,"period_min":94.273351328925,"perigee_km":482.83221634779,"apogee_km":483.90672826135,"semimajor_km":6861.5064723046,"source":"CELESTRAK","updated_at":"2026-09-21T09:00:33.400182Z"}}